Radiation Dose at Monitoring Post of Fukushima Daini Nuclear Power Station
Date,Time,MP-1(microSv/h),MP-2(microSv/h),MP-3(microSv/h),MP-4(microSv/h),MP-5(microSv/h),MP-6(microSv/h),MP-7(microSv/h),Wind Direction,Wind Velocity(m/s),Rain
2023/07/10,00:00,0.151,0.138,0.216,0.207,0.213,0.119,0.078,south-southwest,1.3,No
2023/07/10,00:10,0.149,0.138,0.217,0.208,0.210,0.120,0.077,south-southwest,0.8,No
2023/07/10,00:20,0.152,0.139,0.218,0.207,0.211,0.120,0.077,southeast,0.9,No
2023/07/10,00:30,0.149,0.139,0.217,0.206,0.214,0.119,0.078,southeast,1.3,Yes
2023/07/10,00:40,0.149,0.138,0.217,0.208,0.214,0.120,0.078,south-southwest,0.9,Yes
2023/07/10,00:50,0.155,0.145,0.224,0.213,0.216,0.128,0.085,west-northwest,5.4,Yes
2023/07/10,01:00,0.164,0.152,0.227,0.217,0.222,0.138,0.100,-,CALM,Yes
2023/07/10,01:10,0.170,0.158,0.226,0.222,0.236,0.149,0.112,north,3.0,Yes
2023/07/10,01:20,0.176,0.167,0.237,0.233,0.244,0.155,0.120,north-northwest,6.5,Yes
2023/07/10,01:30,0.185,0.177,0.247,0.239,0.246,0.158,0.122,-,CALM,Yes
2023/07/10,01:40,0.187,0.181,0.248,0.238,0.249,0.162,0.130,northwest,5.1,Yes
2023/07/10,01:50,0.187,0.185,0.250,0.246,0.257,0.168,0.138,northeast,4.0,Yes
2023/07/10,02:00,0.190,0.189,0.258,0.249,0.256,0.170,0.139,east-northeast,4.9,Yes
2023/07/10,02:10,0.193,0.189,0.260,0.249,0.257,0.169,0.139,north-northeast,2.5,Yes
2023/07/10,02:20,0.190,0.188,0.261,0.249,0.258,0.168,0.138,north-northeast,3.2,Yes
2023/07/10,02:30,0.188,0.187,0.258,0.246,0.254,0.165,0.133,east-southeast,1.8,Yes
2023/07/10,02:40,0.184,0.180,0.253,0.241,0.248,0.158,0.128,east,0.8,Yes
2023/07/10,02:50,0.177,0.171,0.245,0.234,0.243,0.150,0.119,north-northeast,1.0,No
2023/07/10,03:00,0.169,0.167,0.240,0.231,0.237,0.145,0.112,north,0.8,Yes
2023/07/10,03:10,0.168,0.161,0.235,0.225,0.232,0.141,0.106,northeast,0.8,Yes
2023/07/10,03:20,0.165,0.155,0.230,0.220,0.227,0.137,0.103,-,CALM,Yes
2023/07/10,03:30,0.159,0.152,0.225,0.216,0.228,0.132,0.098,south,0.7,Yes
2023/07/10,03:40,0.154,0.148,0.222,0.214,0.222,0.129,0.092,-,CALM,No
2023/07/10,03:50,0.154,0.144,0.219,0.209,0.216,0.127,0.090,-,CALM,No
2023/07/10,04:00,0.151,0.141,0.214,0.205,0.215,0.122,0.087,northeast,1.0,No
2023/07/10,04:10,0.148,0.141,0.213,0.207,0.214,0.120,0.085,-,CALM,No
2023/07/10,04:20,0.147,0.136,0.211,0.202,0.212,0.120,0.082,-,CALM,Yes
2023/07/10,04:30,0.147,0.135,0.209,0.199,0.208,0.117,0.080,south,0.6,Yes
2023/07/10,04:40,0.145,0.136,0.208,0.201,0.211,0.116,0.079,-,CALM,No
2023/07/10,04:50,0.143,0.135,0.208,0.200,0.209,0.115,0.078,-,CALM,No
2023/07/10,05:00,0.144,0.132,0.207,0.197,0.207,0.115,0.078,-,CALM,No
2023/07/10,05:10,0.143,0.133,0.205,0.197,0.207,0.114,0.077,-,CALM,No
2023/07/10,05:20,0.142,0.133,0.207,0.198,0.209,0.113,0.076,-,CALM,No
2023/07/10,05:30,0.142,0.131,0.205,0.196,0.206,0.112,0.076,west-northwest,1.3,No
2023/07/10,05:40,0.144,0.131,0.204,0.195,0.204,0.113,0.076,west-northwest,1.8,No
2023/07/10,05:50,0.141,0.132,0.204,0.197,0.207,0.113,0.074,northwest,1.1,No
2023/07/10,06:00,0.141,0.130,0.205,0.197,0.208,0.112,0.075,west-northwest,0.9,No
2023/07/10,06:10,0.142,0.130,0.203,0.195,0.206,0.113,0.074,north,0.7,No
2023/07/10,06:20,0.142,0.129,0.203,0.193,0.204,0.113,0.075,-,CALM,No
2023/07/10,06:30,0.140,0.131,0.205,0.196,0.204,0.112,0.074,southwest,1.0,No
2023/07/10,06:40,0.140,0.131,0.205,0.196,0.206,0.113,0.074,-,CALM,No
2023/07/10,06:50,0.141,0.129,0.202,0.196,0.208,0.113,0.074,-,CALM,No
2023/07/10,07:00,0.141,0.130,0.202,0.195,0.204,0.113,0.073,south-southwest,1.3,No
2023/07/10,07:10,0.140,0.129,0.202,0.193,0.204,0.112,0.074,south,2.5,No
2023/07/10,07:20,0.140,0.130,0.205,0.194,0.203,0.112,0.073,south,2.3,No
2023/07/10,07:30,0.140,0.129,0.206,0.196,0.204,0.112,0.075,south-southwest,2.6,No
2023/07/10,07:40,0.141,0.129,0.205,0.197,0.205,0.113,0.074,south-southwest,2.7,No
2023/07/10,07:50,0.142,0.129,0.203,0.198,0.206,0.113,0.074,south,2.2,No
2023/07/10,08:00,-,-,-,-,-,-,-,-,-,-
2023/07/10,08:10,0.142,0.130,0.203,0.196,0.205,0.113,0.074,south-southwest,1.1,No
2023/07/10,08:20,0.141,0.130,0.204,0.197,0.204,0.113,0.075,south-southwest,1.8,No
2023/07/10,08:30,0.140,0.131,0.203,0.196,0.206,0.113,0.075,south-southeast,1.8,No
2023/07/10,08:40,0.140,0.131,0.204,0.196,0.206,0.113,0.074,south-southeast,2.9,No
2023/07/10,08:50,0.141,0.130,0.204,0.196,0.207,0.113,0.074,south,4.3,No
2023/07/10,09:00,0.141,0.130,0.204,0.195,0.206,0.113,0.074,south,2.7,No
2023/07/10,09:10,0.139,0.131,0.204,0.197,0.206,0.113,0.074,south-southwest,3.0,No
2023/07/10,09:20,0.140,0.131,0.205,0.197,0.206,0.113,0.074,southwest,2.5,No
2023/07/10,09:30,0.140,0.130,0.206,0.197,0.207,0.112,0.074,south-southwest,1.6,No
2023/07/10,09:40,0.141,0.131,0.204,0.198,0.206,0.113,0.074,west-northwest,2.9,No
2023/07/10,09:50,0.140,0.130,0.205,0.197,0.207,0.112,0.074,northwest,5.3,Yes
2023/07/10,10:00,0.141,0.131,0.205,0.198,0.208,0.114,0.075,northwest,2.0,Yes
2023/07/10,10:10,0.142,0.132,0.205,0.197,0.207,0.114,0.074,southwest,2.0,Yes
2023/07/10,10:20,0.140,0.131,0.204,0.196,0.207,0.113,0.074,west,3.9,No
2023/07/10,10:30,0.142,0.131,0.204,0.196,0.205,0.113,0.074,west,1.3,No
2023/07/10,10:40,0.143,0.131,0.204,0.196,0.207,0.113,0.074,west-southwest,2.7,No
2023/07/10,10:50,0.143,0.130,0.203,0.196,0.206,0.112,0.073,southwest,1.4,No
2023/07/10,11:00,0.142,0.131,0.204,0.197,0.206,0.112,0.075,south,0.9,No
2023/07/10,11:10,0.141,0.130,0.204,0.196,0.207,0.113,0.074,east,2.0,No
2023/07/10,11:20,0.142,0.131,0.206,0.197,0.208,0.113,0.074,east-southeast,2.4,No
2023/07/10,11:30,0.141,0.131,0.206,0.198,0.208,0.113,0.075,southeast,2.7,No
2023/07/10,11:40,0.142,0.132,0.205,0.198,0.207,0.114,0.074,southeast,3.5,No
2023/07/10,11:50,0.142,0.131,0.205,0.196,0.208,0.113,0.074,southeast,4.1,No
2023/07/10,12:00,0.142,0.132,0.205,0.198,0.208,0.113,0.075,southeast,2.5,No
2023/07/10,12:10,0.143,0.131,0.207,0.199,0.208,0.113,0.074,south-southeast,2.2,No
2023/07/10,12:20,0.142,0.131,0.207,0.200,0.209,0.113,0.075,south,4.0,No
2023/07/10,12:30,0.141,0.132,0.208,0.199,0.209,0.114,0.074,south-southeast,5.7,No
2023/07/10,12:40,0.142,0.132,0.206,0.198,0.208,0.113,0.074,south,5.6,No
2023/07/10,12:50,0.143,0.132,0.206,0.199,0.208,0.113,0.074,south,5.7,No
2023/07/10,13:00,0.143,0.133,0.207,0.200,0.208,0.113,0.074,south-southeast,5.9,No
2023/07/10,13:10,0.143,0.132,0.207,0.198,0.209,0.113,0.074,south-southeast,6.7,No
2023/07/10,13:20,0.143,0.132,0.207,0.199,0.207,0.113,0.074,south-southeast,7.6,No
2023/07/10,13:30,0.143,0.132,0.206,0.199,0.207,0.114,0.074,south,7.7,No
2023/07/10,13:40,0.143,0.132,0.206,0.198,0.208,0.114,0.075,south,7.4,No
2023/07/10,13:50,0.142,0.132,0.206,0.198,0.208,0.114,0.074,south,7.0,No
2023/07/10,14:00,0.143,0.132,0.205,0.197,0.207,0.114,0.074,south,6.4,No
2023/07/10,14:10,0.142,0.131,0.206,0.196,0.206,0.113,0.074,south,6.8,No
2023/07/10,14:20,0.142,0.130,0.206,0.196,0.206,0.114,0.074,south,8.7,No
2023/07/10,14:30,0.143,0.131,0.204,0.196,0.206,0.114,0.074,south,7.1,Yes
2023/07/10,14:40,0.141,0.131,0.204,0.196,0.206,0.114,0.074,south-southwest,5.6,Yes
2023/07/10,14:50,0.143,0.131,0.205,0.197,0.206,0.114,0.074,south-southwest,5.7,Yes
2023/07/10,15:00,0.142,0.131,0.205,0.197,0.206,0.115,0.075,south,5.9,No
2023/07/10,15:10,0.143,0.131,0.207,0.198,0.208,0.113,0.074,south,4.7,No
2023/07/10,15:20,0.143,0.131,0.206,0.198,0.207,0.114,0.074,south,6.1,No
2023/07/10,15:30,0.143,0.131,0.206,0.198,0.208,0.114,0.074,south-southwest,5.3,No
2023/07/10,15:40,0.142,0.131,0.206,0.196,0.207,0.114,0.074,south-southwest,5.2,No
2023/07/10,15:50,0.142,0.131,0.207,0.197,0.208,0.114,0.075,south-southwest,4.9,Yes
2023/07/10,16:00,0.143,0.131,0.206,0.198,0.207,0.115,0.074,south-southwest,4.2,Yes
2023/07/10,16:10,0.142,0.132,0.206,0.197,0.207,0.115,0.075,south-southwest,4.1,Yes
2023/07/10,16:20,0.143,0.132,0.207,0.197,0.209,0.115,0.077,south-southwest,4.6,Yes
2023/07/10,16:30,0.143,0.131,0.206,0.198,0.208,0.115,0.076,south-southwest,5.0,Yes
2023/07/10,16:40,0.143,0.132,0.205,0.198,0.208,0.116,0.077,south-southwest,5.9,Yes
2023/07/10,16:50,0.145,0.133,0.208,0.199,0.209,0.117,0.078,southwest,6.7,Yes
2023/07/10,17:00,0.146,0.136,0.211,0.202,0.211,0.121,0.081,southwest,5.5,Yes
2023/07/10,17:10,0.148,0.138,0.214,0.206,0.213,0.123,0.083,south-southwest,5.3,Yes
2023/07/10,17:20,0.150,0.139,0.215,0.207,0.216,0.123,0.082,southwest,4.9,Yes
2023/07/10,17:30,0.148,0.138,0.213,0.204,0.215,0.122,0.082,south-southwest,7.0,Yes
2023/07/10,17:40,0.148,0.136,0.211,0.203,0.212,0.120,0.081,south-southwest,8.2,Yes
2023/07/10,17:50,0.147,0.138,0.212,0.204,0.213,0.122,0.082,southwest,7.1,Yes
2023/07/10,18:00,0.150,0.139,0.216,0.208,0.213,0.125,0.085,south-southwest,6.7,Yes
2023/07/10,18:10,0.155,0.142,0.220,0.211,0.220,0.129,0.087,southwest,6.0,Yes
2023/07/10,18:20,0.157,0.146,0.220,0.212,0.220,0.130,0.089,southwest,6.8,Yes
2023/07/10,18:30,0.156,0.145,0.221,0.212,0.219,0.131,0.091,south-southwest,5.4,Yes
2023/07/10,18:40,0.155,0.146,0.223,0.214,0.220,0.133,0.093,south,5.9,Yes
2023/07/10,18:50,0.157,0.147,0.222,0.214,0.222,0.133,0.093,south,6.4,Yes
2023/07/10,19:00,0.156,0.146,0.219,0.210,0.221,0.130,0.090,south-southwest,5.7,Yes
2023/07/10,19:10,0.152,0.142,0.215,0.206,0.216,0.127,0.088,south-southwest,6.0,No
2023/07/10,19:20,0.152,0.140,0.216,0.209,0.214,0.125,0.087,south-southwest,5.3,No
2023/07/10,19:30,0.151,0.139,0.214,0.205,0.216,0.123,0.084,south,3.3,No
2023/07/10,19:40,0.149,0.137,0.210,0.202,0.213,0.122,0.081,southwest,3.2,No
2023/07/10,19:50,0.147,0.135,0.209,0.201,0.210,0.119,0.082,west-southwest,3.3,No
2023/07/10,20:00,0.145,0.135,0.209,0.200,0.208,0.119,0.079,west-southwest,4.2,No
2023/07/10,20:10,0.145,0.134,0.208,0.199,0.211,0.118,0.079,west-southwest,4.2,No
2023/07/10,20:20,0.145,0.133,0.206,0.197,0.210,0.116,0.077,west-southwest,5.2,Yes
2023/07/10,20:30,0.144,0.132,0.207,0.198,0.208,0.115,0.077,west-southwest,5.3,No
2023/07/10,20:40,0.142,0.132,0.208,0.199,0.206,0.116,0.076,west-northwest,8.1,No
2023/07/10,20:50,0.143,0.132,0.205,0.198,0.207,0.115,0.076,west-northwest,9.5,No
2023/07/10,21:00,0.143,0.132,0.202,0.194,0.208,0.115,0.075,northwest,8.5,Yes
2023/07/10,21:10,0.142,0.131,0.204,0.195,0.206,0.114,0.075,northwest,6.6,Yes
2023/07/10,21:20,0.142,0.131,0.207,0.198,0.205,0.115,0.075,northwest,3.7,Yes
2023/07/10,21:30,0.142,0.132,0.205,0.197,0.205,0.115,0.074,north-northwest,1.9,Yes
2023/07/10,21:40,0.143,0.132,0.203,0.195,0.208,0.114,0.074,north-northeast,1.2,Yes
2023/07/10,21:50,0.144,0.131,0.207,0.196,0.208,0.114,0.075,north,1.4,Yes
2023/07/10,22:00,0.143,0.131,0.206,0.197,0.206,0.114,0.074,-,CALM,Yes
2023/07/10,22:10,0.142,0.132,0.205,0.196,0.205,0.115,0.074,-,CALM,No
2023/07/10,22:20,0.144,0.130,0.202,0.194,0.209,0.114,0.074,-,CALM,No
2023/07/10,22:30,0.143,0.131,0.206,0.197,0.208,0.113,0.074,-,CALM,No
2023/07/10,22:40,0.142,0.131,0.205,0.197,0.205,0.113,0.074,southwest,1.4,No
2023/07/10,22:50,0.141,0.132,0.203,0.195,0.204,0.114,0.073,west-southwest,3.6,No
2023/07/10,23:00,0.142,0.129,0.205,0.194,0.207,0.114,0.074,southwest,3.5,No
2023/07/10,23:10,0.143,0.131,0.206,0.198,0.208,0.113,0.074,south-southwest,4.3,No
2023/07/10,23:20,0.142,0.131,0.204,0.196,0.207,0.113,0.073,southwest,4.3,No
2023/07/10,23:30,0.141,0.131,0.203,0.196,0.204,0.114,0.074,southwest,4.9,No
2023/07/10,23:40,0.143,0.130,0.205,0.194,0.206,0.114,0.074,west-southwest,1.1,No
2023/07/10,23:50,0.142,0.130,0.205,0.197,0.208,0.113,0.074,south-southwest,1.6,No
